Tracking 31029 objects as of 15-Jul-2025
HD Live streaming from Space Station
objects crossing your sky now

STARLINK-5336

Track STARLINK-5336 now!
10-day predictions
STARLINK-5336 is classified as:


NORAD ID: 57138
Int'l Code: 2023-090AP
Perigee: 565.5 km
Apogee: 567.0 km
Inclination: 43.0 °
Period: 95.8 minutes
Semi major axis: 6937 km
RCS: Unknown
Launch date: June 23, 2023
Source: United States (US)
Launch site: AIR FORCE EASTERN TEST RANGE (AFETR)
Your satellite tracking list
Your tracking list is empty




NASA's NSSDC Master Catalog

Two Line Element Set (TLE):
1 57138U 23090AP  25196.13269044  .00000499  00000-0  52002-4 0  9995
2 57138  43.0038 112.8782 0001089 265.9620  94.1098 15.02534659113681
Source of the keplerian elements: AFSPC